EUTELSAT 10B

Last updated on Thu Nov 21 2024 00:02:45 GMT+0000 (Coordinated Universal Time)

1 54259U 22157A 24325.08281229 .00000070 00000+0 00000+0 0 9995 2 54259 0.0594 100.9848 0000135 349.5379 8.8967 1.00272128 7271
UTC large
Height (km)
Speed (km/s)
/
Latitude / Longitude
Inclination (degrees)
Orbital Period (minutes)
Azimuth
Elevation
Range (km)
Doppler Factor

Next 0 passes for location: London (51.5072 / 0.1276)

Sorry there are no passes over London.